AP893 Weather Reports


time (UTC)temp
F
wind
direction
speed
knots
gust
knots
rain 1hr
in
rain 24hr
in
rain mn
in
humidity
%
barometer
mb
20260508144010 55 100 0.0 4.3 0.00 0.00 0.00 100 1020.1
20260508142010 53 110 0.0 6.1 0.00 0.00 0.00 100 1020.1
20260508141010 53 143 0.0 5.2 0.00 0.00 0.00 100 1020.0
20260508140010 52 123 0.9 5.2 0.00 0.00 0.00 100 1020.0
20260508135010 51 162 0.0 0.0 0.00 0.00 0.00 100 1019.9
20260508134010 51 162 0.0 0.0 0.00 0.00 0.00 100 1019.7
20260508133010 51 162 0.0 0.0 0.00 0.00 0.00 100 1019.6
20260508132010 51 162 0.0 0.0 0.00 0.00 0.00 100 1019.6
20260508130009 51 162 0.0 0.0 0.00 0.00 0.00 100 1019.7
20260508125010 51 162 0.0 0.0 0.00 0.00 0.00 100 1019.6
20260508124010 51 162 0.0 0.0 0.00 0.00 0.00 100 1019.6
20260508123010 52 162 0.0 0.0 0.00 0.00 0.00 100 1019.6
20260508122010 52 162 0.0 0.0 0.00 0.00 0.00 100 1019.6
20260508121010 52 162 0.0 0.0 0.00 0.00 0.00 100 1019.5
20260508120011 51 162 0.0 0.0 0.00 0.00 0.00 100 1019.5
20260508115010 52 162 0.0 0.0 0.00 0.00 0.00 100 1019.6
20260508114010 52 162 0.0 0.0 0.00 0.00 0.00 100 1019.7
20260508113009 52 162 0.0 0.0 0.00 0.00 0.00 100 1019.6
20260508112009 52 162 0.0 0.0 0.00 0.00 0.00 100 1019.6
20260508111010 52 162 0.0 0.0 0.00 0.00 0.00 100 1019.5
20260508110010 52 162 0.0 0.0 0.00 0.00 0.00 100 1019.6
20260508105009 53 162 0.0 0.0 0.00 0.00 0.00 100 1019.6
20260508104009 53 162 0.0 0.0 0.00 0.00 0.00 100 1019.6
20260508102009 53 162 0.0 0.0 0.00 0.00 0.00 100 1019.5
20260508101010 53 162 0.0 0.0 0.00 0.00 0.00 100 1019.5
20260508100010 53 162 0.0 0.0 0.00 0.00 0.00 100 1019.5
20260508095010 53 162 0.0 0.0 0.00 0.00 0.00 100 1019.5
20260508094010 53 162 0.0 0.0 0.00 0.00 0.00 100 1019.5
20260508093010 53 162 0.0 0.0 0.00 0.00 0.00 100 1019.4
20260508091009 54 162 0.0 0.0 0.00 0.00 0.00 100 1019.6
20260508090009 54 162 0.0 0.0 0.00 0.00 0.00 100 1019.5
20260508084010 54 162 0.0 0.0 0.00 0.00 0.00 100 1019.5
20260508083010 54 162 0.0 0.0 0.00 0.00 0.00 100 1019.6
20260508082009 54 162 0.0 0.0 0.00 0.00 0.00 100 1019.6
20260508081009 54 162 0.0 0.0 0.00 0.00 0.00 100 1019.9
20260508075009 54 162 0.0 0.0 0.00 0.00 0.00 100 1019.9
20260508074010 55 162 0.0 0.0 0.00 0.00 0.00 100 1019.9
20260508073010 55 162 0.0 0.0 0.00 0.00 0.00 100 1020.1
20260508072009 55 161 1.7 4.3 0.00 0.00 0.00 100 1020.1
20260508071009 55 102 0.0 0.0 0.00 0.00 0.00 100 1020.1
20260508070009 55 102 0.0 0.0 0.00 0.00 0.00 100 1020.1
20260508064009 56 102 0.0 0.0 0.00 0.00 0.00 100 1020.1
20260508062009 56 258 0.0 0.0 0.00 0.00 0.00 100 1020.2
20260508061010 57 258 0.0 0.0 0.00 0.00 0.00 100 1020.3
20260508055010 57 258 0.0 1.7 0.00 0.00 0.00 97 1020.4
20260508054009 58 258 0.0 0.0 0.00 0.00 0.00 95 1020.5
20260508053010 58 258 0.0 0.0 0.00 0.00 0.00 94 1020.4
20260508052009 59 258 0.0 0.0 0.00 0.00 0.00 94 1020.4
20260508051009 59 258 0.0 0.0 0.00 0.00 0.00 93 1020.5
20260508045009 61 258 0.0 0.0 0.00 0.00 0.00 90 1020.5
20260508044009 61 258 0.0 0.0 0.00 0.00 0.00 89 1020.5
20260508043009 62 258 0.0 0.0 0.00 0.00 0.00 87 1020.5
20260508042009 63 258 0.0 0.0 0.00 0.00 0.00 86 1020.4
20260508041010 64 258 0.0 0.0 0.00 0.00 0.00 84 1020.3
20260508040009 64 258 0.0 0.0 0.00 0.00 0.00 82 1020.3
20260508035009 65 258 0.0 0.0 0.00 0.00 0.00 81 1020.2
20260508033009 67 258 0.0 0.0 0.00 0.00 0.00 76 1020.0
20260508032009 68 258 0.0 0.0 0.00 0.00 0.00 76 1020.0
20260508030009 70 258 0.0 0.0 0.00 0.00 0.00 72 1019.9
20260508025009 71 258 0.0 0.0 0.00 0.00 0.00 70 1019.9
20260508024010 72 258 0.0 0.0 0.00 0.00 0.00 67 1019.7
20260508023010 73 287 0.0 4.3 0.00 0.00 0.00 64 1019.6
20260508021010 74 322 0.0 5.2 0.00 0.00 0.00 59 1019.5
20260508020010 75 0 0.0 6.1 0.00 0.00 0.00 58 1019.5
20260508015010 75 282 0.9 7.0 0.00 0.00 0.00 55 1019.5
20260508014011 76 20 0.9 5.2 0.00 0.00 0.00 53 1019.5
20260508013010 76 343 0.9 6.1 0.00 0.00 0.00 50 1019.6
20260508011010 77 320 0.0 6.1 0.00 0.00 0.00 48 1019.4
20260508010009 78 0 4.3 7.8 0.00 0.00 0.00 45 1019.5
20260508004010 78 9 2.6 6.1 0.00 0.00 0.00 42 1019.6
20260508003011 78 3 2.6 6.1 0.00 0.00 0.00 43 1019.7
20260508002010 78 19 0.9 6.1 0.00 0.00 0.00 42 1019.6
20260508001009 79 322 1.7 8.7 0.00 0.00 0.00 42 1019.5
20260507233010 79 11 2.6 6.1 0.00 0.00 0.00 41 1019.7
20260507232009 79 332 2.6 7.8 0.00 0.00 0.00 42 1019.9
20260507231010 79 2 5.2 11.3 0.00 0.00 0.00 42 1020.0
20260507230010 79 310 4.3 7.8 0.00 0.00 0.00 42 1020.1
20260507225009 79 25 2.6 8.7 0.00 0.00 0.00 42 1020.1
20260507224010 80 1 0.9 7.0 0.00 0.00 0.00 44 1020.3
20260507223010 80 282 0.0 7.0 0.00 0.00 0.00 43 1020.3
20260507222010 80 337 1.7 8.7 0.00 0.00 0.00 43 1020.4
20260507221010 79 3 0.0 7.0 0.00 0.00 0.00 45 1020.5
20260507220010 78 349 1.7 8.7 0.00 0.00 0.00 46 1020.5
20260507215009 77 285 2.6 10.4 0.00 0.00 0.00 47 1020.6
20260507213010 78 281 0.0 7.0 0.00 0.00 0.00 46 1020.6
20260507212009 78 326 0.9 6.1 0.00 0.00 0.00 46 1020.8
20260507211010 77 352 4.3 10.4 0.00 0.00 0.00 44 1021.0
20260507205010 77 353 1.7 6.1 0.00 0.00 0.00 47 1021.0
20260507204010 76 352 1.7 6.1 0.00 0.00 0.00 50 1021.1
20260507203009 76 355 4.3 7.8 0.00 0.00 0.00 51 1021.0
20260507202009 76 5 3.5 7.8 0.00 0.00 0.00 51 1021.2
20260507201009 76 355 5.2 10.4 0.00 0.00 0.00 51 1021.3
20260507200011 76 288 0.9 7.8 0.00 0.00 0.00 52 1021.2
20260507195009 75 14 1.7 11.3 0.00 0.00 0.00 55 1021.2
20260507194009 76 242 0.9 8.7 0.00 0.00 0.00 54 1021.2
20260507193009 75 286 1.7 7.8 0.00 0.00 0.00 56 1021.3
20260507191009 74 331 4.3 8.7 0.00 0.00 0.00 57 1021.4
20260507190010 74 357 2.6 7.0 0.00 0.00 0.00 59 1021.5
20260507185009 73 335 1.7 7.0 0.00 0.00 0.00 59 1021.5
20260507184009 72 270 0.9 8.7 0.00 0.00 0.00 60 1021.7
20260507183009 73 0 0.9 7.8 0.00 0.00 0.00 60 1021.8
20260507182010 74 0 0.9 6.1 0.00 0.00 0.00 60 1021.7
20260507181009 73 6 2.6 7.0 0.00 0.00 0.00 59 1021.7
20260507174010 71 345 1.7 6.1 0.00 0.00 0.00 62 1021.6
20260507173010 71 0 0.9 6.1 0.00 0.00 0.00 64 1021.6
20260507171009 70 341 0.9 5.2 0.00 0.00 0.00 65 1021.7
20260507170009 69 349 0.0 6.1 0.00 0.00 0.00 67 1021.7
20260507165009 68 356 3.5 7.8 0.00 0.00 0.00 69 1021.7
20260507164009 67 0 2.6 7.8 0.00 0.00 0.00 68 1021.7
20260507163009 68 358 4.3 7.8 0.00 0.00 0.00 66 1021.7
20260507162009 67 352 1.7 5.2 0.00 0.00 0.00 64 1021.7
20260507161009 67 157 0.0 0.0 0.00 0.00 0.00 67 1021.6
20260507160009 66 157 0.0 5.2 0.00 0.00 0.00 68 1021.7
20260507153009 64 89 0.0 0.0 0.00 0.00 0.00 82 1021.7
20260507152009 61 89 0.0 4.3 0.00 0.00 0.00 92 1021.6
20260507151009 59 99 0.0 5.2 0.00 0.00 0.00 100 1021.6
20260507150009 56 95 0.9 5.2 0.00 0.00 0.00 100 1021.7
20260507145010 55 101 0.9 4.3 0.00 0.00 0.00 100 1021.7